INTELSAT 602 (IS-602) 1 20315U 89087A 12135.49602703 .00000019 00000-0 10000-3 0 4849 2 20315 9.2968 52.8956 0001288 36.8615 139.2596 1.00272538 80371 INTELSAT 603 (IS-603) 1 20523U 90021A 12136.94094942 .00000063 00000-0 10000-3 0 419 2 20523 8.8059 54.4238 0001173 347.6956 182.1534 1.00273180 74144 SBS-6 1 20872U 90091A 12135.87236903 .00000056 00000-0 10000-3 0 5113 2 20872 4.3283 67.2815 0011926 353.6901 6.1137 0.98990428 67309 INTELSAT 605 (IS-605) 1 21653U 91055A 12135.50536359 -.00000130 00000-0 10000-3 0 2481 2 21653 6.9311 60.2202 0003925 335.6399 24.2067 0.99328156 75857 INTELSAT 601 (IS-601) 1 21765U 91075A 12135.78446219 -.00000059 00000-0 10000-3 0 3416 2 21765 6.9115 59.0180 0002293 298.6114 61.2039 0.99586328 75064 INTELSAT 701 (IS-701) 1 22871U 93066A 12135.49546293 -.00000151 00000-0 10000-3 0 9103 2 22871 0.4124 78.9838 0005489 349.5978 139.3863 1.00270988 67851 INTELSAT 702 (IS-702) 1 23124U 94034A 12135.08709336 .00000113 00000-0 10000-3 0 7212 2 23124 0.7644 78.6175 0003743 342.4776 249.9822 1.00273069 79762 INTELSAT 2 (IS-2) 1 23175U 94040A 12136.26257568 -.00000151 00000-0 00000+0 0 997 2 23175 3.0649 74.0624 0010290 325.6252 34.0727 0.99192256 64648 INTELSAT 704 (IS-704) 1 23461U 95001A 12135.20076649 -.00000273 00000-0 10000-3 0 4483 2 23461 2.6766 70.4122 0007638 342.8145 16.9147 0.99182324 63434 INTELSAT 705 (IS-705) 1 23528U 95013A 12134.78876262 -.00000059 00000-0 00000-0 0 4074 2 23528 2.2461 71.6073 0022358 336.0021 23.6212 0.98971924 62661 INTELSAT 706 (IS-706) 1 23571U 95023A 12136.76279524 -.00000066 00000-0 10000-3 0 5096 2 23571 0.7019 77.8039 0003761 330.2909 172.3854 1.00272420 62235 INTELSAT 3R (IS-3R) 1 23764U 96002A 12136.44772662 .00000019 00000-0 10000-3 0 2289 2 23764 2.4314 70.5298 0005578 151.8922 207.8496 0.99086863 59810 PAKSAT 1 (ANATOLIA 1) 1 23779U 96006A 12136.09808765 -.00000108 00000-0 10000-3 0 7706 2 23779 0.4534 80.5951 0009295 5.8338 273.6768 0.99588275 59585 INTELSAT 707 (IS-707) 1 23816U 96015A 12135.36347124 -.00000298 00000-0 00000+0 0 4065 2 23816 0.0550 33.4640 0004085 17.0434 259.7585 1.00267000 59223 GALAXY 9 (G-9) 1 23877U 96033A 12134.97112952 .00000068 00000-0 10000-3 0 5528 2 23877 3.3377 68.9327 0011396 11.6707 348.1483 0.99541111 58464 INTELSAT 709 (IS-709) 1 23915U 96035A 12136.81478509 -.00000067 00000-0 10000-3 0 5408 2 23915 0.1010 83.2461 0001665 352.9299 163.1539 1.00272223 58320 INTELSAT 26 (IS-26) 1 24732U 97007A 12136.64350734 .00000104 00000-0 10000-3 0 1829 2 24732 4.0324 66.8074 0003327 341.8092 107.0656 1.00272330 55739 INTELSAT 801 (IS-801) 1 24742U 97009A 12137.13290356 -.00000220 00000-0 10000-3 0 1088 2 24742 3.2609 69.3697 0013303 268.8883 274.4304 1.00271450 55749 GALAXY 25 (G-25) 1 24812U 97026A 12133.37004049 -.00000180 00000-0 10000-3 0 4470 2 24812 0.0026 97.3347 0003174 314.6863 218.6152 1.00270737 54838 INTELSAT 802 (IS-802) 1 24846U 97031A 12136.41488825 -.00000031 00000-0 10000-3 0 3877 2 24846 1.2384 73.0425 0021605 176.8626 182.6612 0.98108175 54458 INTELSAT 5 (IS-5) 1 24916U 97046A 12135.49578309 -.00000043 00000-0 10000-3 0 3159 2 24916 0.0386 95.3326 0003509 328.1636 156.5975 1.00272548 54023 INTELSAT 805 (IS-805) 1 25371U 98037A 12137.11819332 -.00000293 00000-0 10000-3 0 9053 2 25371 0.0527 78.7256 0003270 4.4459 138.1134 1.00272850 50974 INTELSAT 7 (IS-7) 1 25473U 98052A 12133.78658690 -.00000044 00000-0 10000-3 0 3845 2 25473 0.0005 281.2423 0003146 111.9532 189.5825 1.00272535 50015 INTELSAT 8 (IS-8) 1 25522U 98065A 12135.49569924 -.00000070 00000-0 10000-3 0 1695 2 25522 0.0116 318.6376 0003182 92.7229 165.7016 1.00271759 49613 GALAXY 26 (G-26) 1 25626U 99005A 12136.57715609 .00000106 00000-0 10000-3 0 9987 2 25626 0.0124 278.4916 0002675 135.9626 77.0097 1.00272478 48541 INSAT-2E (APR-1) 1 25666U 99016A 12136.82546197 -.00000057 00000-0 10000-3 0 9543 2 25666 1.6062 74.3646 0004246 108.6072 250.9764 0.99650936 48150 GALAXY 27 (G-27) 1 25922U 99052A 12136.59400583 .00000127 00000-0 10000-3 0 313 2 25922 0.0072 18.9718 0002241 27.8379 85.8408 1.00274446 46292 GALAXY 11 (G-11) 1 26038U 99071A 12137.21238682 -.00000293 00000-0 10000-3 0 3411 2 26038 0.0110 280.5884 0001932 217.4121 117.1982 1.00270313 45512 GALAXY 4R (G-4R) 1 26298U 00020A 12134.68489978 -.00000285 00000-0 10000-3 0 1586 2 26298 5.1907 63.9007 0004665 3.0238 356.8221 0.99836681 44277 INTELSAT 9 (IS-9) 1 26451U 00043A 12135.36334927 -.00000298 00000-0 10000-3 0 7783 2 26451 0.0152 33.8641 0002059 18.0379 253.3652 1.00268275 43236 INTELSAT 12 (IS-12) 1 26590U 00068A 12137.09214394 .00000129 00000-0 10000-3 0 8177 2 26590 0.0046 312.6477 0002116 86.0130 273.7078 1.00272952 42314 INTELSAT 1R (IS-1R) 1 26608U 00072A 12134.36731231 -.00000298 00000-0 10000-3 0 4885 2 26608 0.0419 104.7613 0000490 167.9273 41.0588 1.00269797 42135 INTELSAT 10 (IS-10) 1 26766U 01019A 12136.82898758 -.00000033 00000-0 10000-3 0 9885 2 26766 0.0244 320.7751 0003662 120.1966 159.8786 1.00272197 40339 INTELSAT 901 (IS-901) 1 26824U 01024A 12135.08553828 -.00000155 00000-0 10000-3 0 8805 2 26824 0.0097 341.0412 0005932 76.3722 187.6022 1.00271343 40068 INTELSAT 902 (IS-902) 1 26900U 01039A 12136.87612479 .00000025 00000-0 00000+0 0 8969 2 26900 0.0056 335.3555 0003127 92.0691 183.9537 1.00271784 39254 INTELSAT 904 (IS-904) 1 27380U 02007A 12136.58669086 .00000040 00000-0 10000-3 0 9493 2 27380 0.0241 10.1358 0003125 31.4922 103.2766 1.00272925 37507 INTELSAT 903 (IS-903) 1 27403U 02016A 12137.13520978 -.00000245 00000-0 10000-3 0 6717 2 27403 0.0724 65.9087 0009760 267.6739 274.9518 1.00271050 37167 INTELSAT 905 (IS-905) 1 27438U 02027A 12137.12990500 -.00000192 00000-0 10000-3 0 5077 2 27438 0.0508 91.1828 0002034 310.6608 214.6667 1.00271082 36485 GALAXY 3C (G-3C) 1 27445U 02030A 12135.36243451 -.00000164 00000-0 10000-3 0 5843 2 27445 0.0390 82.4707 0000141 228.0109 317.4110 1.00270371 36346 INTELSAT 906 (IS-906) 1 27513U 02041A 12137.03771950 .00000007 00000-0 10000-3 0 6999 2 27513 0.0149 323.7951 0003214 109.7902 238.2831 1.00272784 35536 INTELSAT 907 (IS-907) 1 27683U 03007A 12132.09664625 -.00000221 00000-0 10000-3 0 2446 2 27683 0.0145 293.3082 0005670 59.0037 244.3121 1.00271378 33841 GALAXY 12 (G-12) 1 27715U 03013B 12136.35766641 .00000049 00000-0 10000-3 0 5511 2 27715 0.0227 329.0346 0002240 92.1936 172.0128 1.00273457 33400 GALAXY 23 (G-23) 1 27854U 03034A 12135.57479539 .00000000 00000-0 10000-3 0 5076 2 27854 0.0181 356.2913 0003229 67.0443 255.3121 1.00273036 32159 GALAXY 13 (HORIZONS-1) 1 27954U 03044A 12136.51490021 .00000039 00000-0 10000-3 0 3869 2 27954 0.0026 270.8454 0002742 164.8272 216.2883 1.00271154 31647 INTELSAT 10-02 1 28358U 04022A 12137.16356409 -.00000018 00000-0 10000-3 0 2933 2 28358 0.0023 230.9652 0001002 174.2586 246.9681 1.00272701 29036 GALAXY 28 (G-28) 1 28702U 05022A 12134.36636707 -.00000201 00000-0 10000-3 0 2785 2 28702 0.0240 27.3297 0001184 68.8770 178.1985 1.00271191 25274 GALAXY 14 (G-14) 1 28790U 05030A 12137.11441667 .00000029 00000-0 10000-3 0 3100 2 28790 0.0407 38.2701 0002649 13.5152 98.6401 1.00273512 24722 GALAXY 15 (G-15) 1 28884U 05041A 12135.36608030 .00000065 00000-0 10000-3 0 3324 2 28884 0.0444 37.5167 0001789 17.6626 176.1140 1.00273652 24132 GALAXY 16 (G-16) 1 29236U 06023A 12135.36232779 -.00000140 00000-0 10000-3 0 2021 2 29236 0.0735 85.6049 0003414 301.5222 236.7868 1.00270834 21657 GALAXY 17 (G-17) 1 31307U 07016B 12137.12536113 -.00000182 00000-0 10000-3 0 9080 2 31307 0.0416 40.9101 0003815 338.4772 169.0020 1.00272687 18485 INTELSAT 11 (IS-11) 1 32253U 07044B 12136.08094598 -.00000279 00000-0 10000-3 0 6930 2 32253 0.0134 59.3767 0005579 286.9689 233.0449 1.00269847 16926 HORIZONS-2 1 32388U 07063B 12136.61591203 -.00000191 00000-0 10000-3 0 7703 2 32388 0.0138 298.1907 0003315 123.5940 118.5102 1.00271405 16285 GALAXY 18 (G-18) 1 32951U 08024A 12135.59570322 .00000013 00000-0 10000-3 0 6354 2 32951 0.0207 184.2700 0003271 228.5789 271.3186 1.00271043 14604 INTELSAT 25 (IS-25) 1 33153U 08034A 12135.08518762 -.00000238 00000-0 10000-3 0 6826 2 33153 0.0445 37.2024 0002993 42.0031 152.1588 1.00270715 14133 INTELSAT 14 (IS-14) 1 36097U 09064A 12136.35981609 -.00000284 00000-0 10000-3 0 3913 2 36097 0.0095 281.5853 0002305 150.1885 246.2234 1.00270890 9101 INTELSAT 15 (IS-15) 1 36106U 09067A 12136.61591215 -.00000194 00000-0 10000-3 0 5491 2 36106 0.0507 75.3820 0002532 338.9582 126.2782 1.00271859 9005 INTELSAT 16 (IS-16) 1 36397U 10006A 12135.08449392 -.00000299 00000-0 10000-3 0 4367 2 36397 0.0497 70.4732 0002492 354.1106 139.9401 1.00270004 8234 INTELSAT 17 (IS-17) 1 37238U 10065B 12136.99565726 -.00000010 00000-0 10000-3 0 2840 2 37238 0.0126 65.6449 0003271 340.7461 252.1499 1.00272648 5430 INTELSAT NEW DAWN 1 37392U 11016A 12136.73928491 .00000147 00000-0 10000-3 0 2358 2 37392 0.0419 93.9013 0000483 171.8505 267.0660 1.00274732 3946 INTELSAT 18 (IS-18) 1 37834U 11056A 12134.49987580 .00000037 00000-0 10000-3 0 1434 2 37834 0.0441 82.6855 0002104 322.8115 186.0914 1.00272356 2343 INTELSAT 22 (IS-22) 1 38098U 12011A 12137.01626338 -.00000067 00000-0 10000-3 0 434 2 38098 0.0230 96.4595 0001175 340.3648 235.2851 1.00272157 556